| time (UTC) | temp F | wind direction | speed MPH | gust MPH | rain 1hr in | rain 24hr in | rain mn in | humidity % | barometer mb |
| 20260506182553 | 62 | 295 | 1.0 | 2.0 | 0.01 | 0.00 | 0.09 | 90 | 1008.0 |
| 20260506182053 | 62 | 359 | 0.0 | 1.0 | 0.02 | 0.00 | 0.09 | 90 | 1008.0 |
| 20260506181553 | 62 | 261 | 1.0 | 2.0 | 0.08 | 0.00 | 0.09 | 89 | 1008.0 |
| 20260506181052 | 62 | 226 | 1.0 | 1.0 | 0.00 | 0.00 | 0.09 | 89 | 1008.0 |
| 20260506180552 | 62 | 342 | 0.0 | 0.0 | 0.00 | 0.00 | 0.08 | 89 | 1008.0 |
| 20260506180052 | 62 | 235 | 1.0 | 3.0 | 0.00 | 0.00 | 0.08 | 88 | 1008.0 |
| 20260506175553 | 63 | 191 | 2.0 | 4.0 | 0.01 | 0.00 | 0.08 | 88 | 1008.0 |
| 20260506175052 | 63 | 264 | 1.0 | 2.0 | 0.00 | 0.00 | 0.08 | 88 | 1008.0 |
| 20260506174552 | 63 | 209 | 1.0 | 2.0 | 0.00 | 0.00 | 0.08 | 88 | 1008.0 |
| 20260506174054 | 63 | 277 | 1.0 | 3.0 | 0.00 | 0.00 | 0.08 | 88 | 1008.0 |
| 20260506173553 | 63 | 297 | 1.0 | 2.0 | 0.00 | 0.00 | 0.08 | 88 | 1008.0 |
| 20260506173054 | 63 | 206 | 1.0 | 2.0 | 0.01 | 0.00 | 0.08 | 89 | 1008.0 |
| 20260506172552 | 62 | 180 | 0.0 | 0.0 | 0.00 | 0.00 | 0.08 | 89 | 1008.0 |
| 20260506172052 | 62 | 19 | 1.0 | 2.0 | 0.01 | 0.00 | 0.08 | 89 | 1008.0 |
| 20260506171552 | 62 | 195 | 0.0 | 2.0 | 0.04 | 0.00 | 0.08 | 90 | 1009.0 |
| 20260506171054 | 62 | 357 | 1.0 | 1.0 | 0.04 | 0.00 | 0.07 | 90 | 1008.0 |
| 20260506170554 | 62 | 99 | 0.0 | 2.0 | 0.07 | 0.00 | 0.07 | 89 | 1008.0 |
| 20260506170053 | 62 | 49 | 0.0 | 1.0 | 0.06 | 0.00 | 0.06 | 89 | 1008.0 |
| 20260506165553 | 62 | 0 | 0.0 | 0.0 | 0.00 | 0.00 | 0.06 | 88 | 1008.0 |
| 20260506165052 | 62 | 262 | 0.0 | 1.0 | 0.00 | 0.00 | 0.05 | 88 | 1008.0 |
| 20260506164555 | 62 | 0 | 0.0 | 0.0 | 0.00 | 0.00 | 0.05 | 88 | 1009.0 |
| 20260506164052 | 62 | 215 | 1.0 | 2.0 | 0.05 | 0.00 | 0.05 | 88 | 1009.0 |
| 20260506163553 | 62 | 339 | 0.0 | 1.0 | 0.02 | 0.00 | 0.04 | 87 | 1009.0 |
| 20260506163053 | 62 | 269 | 0.0 | 1.0 | 0.03 | 0.00 | 0.04 | 87 | 1009.0 |
| 20260506162552 | 63 | 176 | 1.0 | 2.0 | 0.01 | 0.00 | 0.04 | 87 | 1009.0 |
| 20260506162053 | 63 | 234 | 2.0 | 4.0 | 0.03 | 0.00 | 0.05 | 85 | 1009.0 |
| 20260506161552 | 63 | 0 | 0.0 | 0.0 | 0.08 | 0.00 | 0.04 | 85 | 1009.0 |
| 20260506161053 | 63 | 0 | 0.0 | 0.0 | 0.03 | 0.00 | 0.04 | 85 | 1009.0 |
| 20260506160552 | 64 | 114 | 0.0 | 0.0 | 0.01 | 0.00 | 0.03 | 84 | 1010.0 |
| 20260506160053 | 64 | 0 | 0.0 | 0.0 | 0.00 | 0.00 | 0.03 | 84 | 1010.0 |
| 20260506155553 | 64 | 151 | 0.0 | 0.0 | 0.00 | 0.00 | 0.03 | 83 | 1010.0 |
| 20260506155052 | 64 | 86 | 0.0 | 1.0 | 0.02 | 0.00 | 0.02 | 82 | 1010.0 |
| 20260506154553 | 65 | 7 | 0.0 | 1.0 | 0.00 | 0.00 | 0.02 | 80 | 1010.0 |
| 20260506154053 | 65 | 142 | 0.0 | 1.0 | 0.00 | 0.00 | 0.02 | 79 | 1010.0 |
| 20260506153553 | 65 | 168 | 0.0 | 1.0 | 0.00 | 0.00 | 0.01 | 79 | 1010.0 |
| 20260506153053 | 65 | 276 | 0.0 | 1.0 | 0.01 | 0.00 | 0.01 | 79 | 1010.0 |
| 20260506152553 | 65 | 267 | 2.0 | 3.0 | 0.01 | 0.00 | 0.01 | 77 | 1010.0 |
| 20260506152053 | 65 | 216 | 1.0 | 2.0 | 0.00 | 0.00 | 0.00 | 77 | 1009.0 |
| 20260506151553 | 65 | 197 | 2.0 | 3.0 | 0.00 | 0.00 | 0.00 | 76 | 1009.0 |
| 20260506151053 | 66 | 258 | 2.0 | 2.0 | 0.00 | 0.00 | 0.00 | 76 | 1009.0 |
| 20260506150553 | 66 | 139 | 3.0 | 4.0 | 0.00 | 0.00 | 0.00 | 74 | 1009.0 |
| 20260506150054 | 66 | 212 | 1.0 | 2.0 | 0.00 | 0.00 | 0.00 | 73 | 1010.0 |
| 20260506145604 | 67 | 145 | 2.0 | 3.0 | 0.00 | 0.00 | 0.00 | 73 | 1010.0 |
| 20260506145053 | 67 | 250 | 2.0 | 2.0 | 0.00 | 0.00 | 0.00 | 71 | 1010.0 |
| 20260506144555 | 67 | 205 | 1.0 | 2.0 | 0.00 | 0.00 | 0.00 | 71 | 1010.0 |
| 20260506144053 | 67 | 269 | 1.0 | 2.0 | 0.00 | 0.00 | 0.00 | 71 | 1010.0 |
| 20260506143553 | 67 | 259 | 1.0 | 3.0 | 0.00 | 0.00 | 0.00 | 71 | 1010.0 |
| 20260506143052 | 67 | 171 | 4.0 | 7.0 | 0.00 | 0.00 | 0.00 | 71 | 1010.0 |
| 20260506142553 | 67 | 213 | 1.0 | 3.0 | 0.00 | 0.00 | 0.00 | 71 | 1010.0 |
| 20260506142052 | 66 | 157 | 2.0 | 3.0 | 0.00 | 0.00 | 0.00 | 72 | 1010.0 |
| 20260506141552 | 66 | 236 | 0.0 | 1.0 | 0.00 | 0.00 | 0.00 | 72 | 1010.0 |
| 20260506141055 | 66 | 220 | 1.0 | 1.0 | 0.00 | 0.00 | 0.00 | 72 | 1010.0 |
| 20260506140552 | 66 | 202 | 1.0 | 2.0 | 0.00 | 0.00 | 0.00 | 71 | 1010.0 |
| 20260506140054 | 66 | 260 | 1.0 | 2.0 | 0.00 | 0.00 | 0.00 | 71 | 1010.0 |
| 20260506135553 | 66 | 4 | 1.0 | 1.0 | 0.00 | 0.00 | 0.00 | 71 | 1010.0 |
| 20260506135053 | 67 | 309 | 2.0 | 2.0 | 0.00 | 0.00 | 0.00 | 71 | 1010.0 |
| 20260506134554 | 67 | 253 | 0.0 | 1.0 | 0.00 | 0.00 | 0.00 | 71 | 1010.0 |
| 20260506134053 | 67 | 260 | 1.0 | 3.0 | 0.00 | 0.00 | 0.00 | 71 | 1010.0 |
| 20260506133552 | 67 | 302 | 1.0 | 2.0 | 0.00 | 0.00 | 0.00 | 71 | 1010.0 |
| 20260506133052 | 67 | 351 | 2.0 | 4.0 | 0.00 | 0.00 | 0.00 | 71 | 1010.0 |
| 20260506132553 | 67 | 198 | 1.0 | 3.0 | 0.00 | 0.00 | 0.00 | 71 | 1010.0 |
| 20260506132053 | 67 | 195 | 2.0 | 4.0 | 0.00 | 0.00 | 0.00 | 71 | 1010.0 |
| 20260506131553 | 66 | 154 | 2.0 | 3.0 | 0.00 | 0.00 | 0.00 | 71 | 1010.0 |
| 20260506131053 | 66 | 8 | 1.0 | 2.0 | 0.00 | 0.00 | 0.00 | 72 | 1010.0 |
| 20260506130553 | 66 | 223 | 1.0 | 1.0 | 0.00 | 0.00 | 0.00 | 72 | 1010.0 |
| 20260506130053 | 66 | 259 | 0.0 | 1.0 | 0.00 | 0.00 | 0.00 | 72 | 1010.0 |
| 20260506125553 | 66 | 224 | 1.0 | 3.0 | 0.00 | 0.00 | 0.00 | 72 | 1010.0 |
| 20260506125054 | 66 | 202 | 2.0 | 2.0 | 0.00 | 0.00 | 0.00 | 72 | 1010.0 |
| 20260506124553 | 66 | 212 | 1.0 | 2.0 | 0.00 | 0.00 | 0.00 | 73 | 1010.0 |
| 20260506124052 | 66 | 247 | 2.0 | 3.0 | 0.00 | 0.00 | 0.00 | 73 | 1010.0 |
| 20260506123552 | 65 | 232 | 1.0 | 2.0 | 0.00 | 0.00 | 0.00 | 73 | 1010.0 |
| 20260506123053 | 65 | 40 | 1.0 | 1.0 | 0.00 | 0.00 | 0.00 | 73 | 1009.0 |
| 20260506122552 | 65 | 228 | 2.0 | 2.0 | 0.00 | 0.00 | 0.00 | 74 | 1010.0 |
| 20260506122053 | 65 | 234 | 1.0 | 1.0 | 0.00 | 0.00 | 0.00 | 75 | 1010.0 |
| 20260506121553 | 65 | 221 | 1.0 | 2.0 | 0.00 | 0.00 | 0.00 | 75 | 1010.0 |
| 20260506121052 | 65 | 9 | 0.0 | 0.0 | 0.00 | 0.00 | 0.00 | 75 | 1010.0 |
| 20260506120553 | 65 | 215 | 1.0 | 2.0 | 0.00 | 0.00 | 0.00 | 75 | 1010.0 |
| 20260506120053 | 65 | 247 | 2.0 | 3.0 | 0.00 | 0.00 | 0.00 | 75 | 1010.0 |
| 20260506115552 | 65 | 223 | 1.0 | 2.0 | 0.00 | 0.00 | 0.00 | 75 | 1010.0 |
| 20260506115052 | 65 | 177 | 2.0 | 3.0 | 0.00 | 0.00 | 0.00 | 75 | 1010.0 |
| 20260506114552 | 64 | 170 | 2.0 | 3.0 | 0.00 | 0.00 | 0.00 | 76 | 1010.0 |
| 20260506114053 | 64 | 40 | 1.0 | 1.0 | 0.00 | 0.00 | 0.00 | 76 | 1010.0 |
| 20260506113553 | 64 | 298 | 0.0 | 0.0 | 0.00 | 0.00 | 0.00 | 76 | 1010.0 |
| 20260506113053 | 64 | 308 | 0.0 | 1.0 | 0.00 | 0.00 | 0.00 | 77 | 1010.0 |
| 20260506112552 | 64 | 147 | 0.0 | 0.0 | 0.00 | 0.00 | 0.00 | 77 | 1010.0 |
| 20260506112053 | 64 | 151 | 0.0 | 1.0 | 0.00 | 0.00 | 0.00 | 77 | 1010.0 |
| 20260506111552 | 64 | 228 | 0.0 | 0.0 | 0.00 | 0.00 | 0.00 | 77 | 1010.0 |
| 20260506111053 | 63 | 252 | 0.0 | 1.0 | 0.00 | 0.00 | 0.00 | 78 | 1010.0 |
| 20260506110552 | 63 | 166 | 1.0 | 1.0 | 0.00 | 0.00 | 0.00 | 78 | 1010.0 |
| 20260506110052 | 63 | 312 | 0.0 | 1.0 | 0.00 | 0.00 | 0.00 | 78 | 1010.0 |
| 20260506105553 | 63 | 57 | 1.0 | 1.0 | 0.00 | 0.00 | 0.00 | 78 | 1010.0 |
| 20260506105054 | 63 | 317 | 0.0 | 0.0 | 0.00 | 0.00 | 0.00 | 79 | 1010.0 |
| 20260506104554 | 63 | 105 | 0.0 | 0.0 | 0.00 | 0.00 | 0.00 | 79 | 1010.0 |
| 20260506104053 | 63 | 173 | 1.0 | 2.0 | 0.00 | 0.00 | 0.00 | 79 | 1010.0 |
| 20260506103553 | 63 | 258 | 0.0 | 1.0 | 0.00 | 0.00 | 0.00 | 79 | 1010.0 |
| 20260506103053 | 63 | 316 | 0.0 | 1.0 | 0.00 | 0.00 | 0.00 | 79 | 1010.0 |
| 20260506102553 | 63 | 277 | 2.0 | 2.0 | 0.00 | 0.00 | 0.00 | 79 | 1010.0 |
| 20260506102052 | 63 | 207 | 1.0 | 2.0 | 0.00 | 0.00 | 0.00 | 79 | 1010.0 |
| 20260506101554 | 63 | 240 | 0.0 | 1.0 | 0.00 | 0.00 | 0.00 | 79 | 1010.0 |
| 20260506101053 | 63 | 215 | 1.0 | 2.0 | 0.00 | 0.00 | 0.00 | 79 | 1010.0 |
| 20260506100552 | 63 | 294 | 1.0 | 2.0 | 0.00 | 0.00 | 0.00 | 79 | 1010.0 |
| 20260506100054 | 63 | 155 | 0.0 | 1.0 | 0.00 | 0.00 | 0.00 | 79 | 1010.0 |
| 20260506095552 | 63 | 208 | 1.0 | 2.0 | 0.00 | 0.00 | 0.00 | 79 | 1010.0 |
| 20260506095052 | 63 | 314 | 1.0 | 2.0 | 0.00 | 0.00 | 0.00 | 79 | 1010.0 |
| 20260506094553 | 63 | 269 | 1.0 | 1.0 | 0.00 | 0.00 | 0.00 | 80 | 1010.0 |
| 20260506094057 | 63 | 83 | 1.0 | 2.0 | 0.00 | 0.00 | 0.00 | 80 | 1010.0 |
| 20260506093553 | 62 | 176 | 0.0 | 1.0 | 0.00 | 0.00 | 0.00 | 80 | 1010.0 |
| 20260506093052 | 62 | 127 | 1.0 | 2.0 | 0.00 | 0.00 | 0.00 | 80 | 1010.0 |
| 20260506092552 | 62 | 129 | 0.0 | 1.0 | 0.00 | 0.00 | 0.00 | 81 | 1010.0 |
| 20260506092053 | 62 | 245 | 0.0 | 1.0 | 0.00 | 0.00 | 0.00 | 80 | 1010.0 |
| 20260506091552 | 62 | 279 | 0.0 | 1.0 | 0.00 | 0.00 | 0.00 | 81 | 1010.0 |
| 20260506091053 | 62 | 0 | 0.0 | 0.0 | 0.00 | 0.00 | 0.00 | 81 | 1010.0 |
| 20260506090552 | 62 | 0 | 0.0 | 0.0 | 0.00 | 0.00 | 0.00 | 80 | 1010.0 |
| 20260506090052 | 62 | 187 | 0.0 | 1.0 | 0.00 | 0.00 | 0.00 | 80 | 1010.0 |
| 20260506085553 | 63 | 0 | 0.0 | 0.0 | 0.00 | 0.00 | 0.00 | 80 | 1010.0 |
| 20260506085053 | 63 | 236 | 0.0 | 1.0 | 0.00 | 0.00 | 0.00 | 79 | 1010.0 |
| 20260506084553 | 63 | 310 | 0.0 | 1.0 | 0.00 | 0.00 | 0.00 | 79 | 1010.0 |
| 20260506084052 | 63 | 318 | 0.0 | 1.0 | 0.00 | 0.00 | 0.00 | 79 | 1010.0 |
| 20260506083553 | 63 | 269 | 0.0 | 1.0 | 0.00 | 0.00 | 0.00 | 79 | 1010.0 |
| 20260506083053 | 63 | 211 | 0.0 | 1.0 | 0.00 | 0.00 | 0.00 | 79 | 1010.0 |
| 20260506082129 | 63 | 280 | 0.0 | 1.0 | 0.00 | 0.00 | 0.00 | 78 | 1010.0 |
| 20260506081552 | 63 | 249 | 1.0 | 1.0 | 0.00 | 0.00 | 0.00 | 78 | 1010.0 |
| 20260506081052 | 63 | 0 | 0.0 | 0.0 | 0.00 | 0.00 | 0.00 | 78 | 1010.0 |
| 20260506080553 | 64 | 202 | 0.0 | 0.0 | 0.00 | 0.00 | 0.00 | 77 | 1010.0 |
| 20260506073053 | 64 | 0 | 0.0 | 0.0 | 0.00 | 0.00 | 0.00 | 76 | 1010.0 |
| 20260506072554 | 64 | 267 | 0.0 | 0.0 | 0.00 | 0.00 | 0.00 | 75 | 1010.0 |
| 20260506072053 | 64 | 167 | 1.0 | 1.0 | 0.00 | 0.00 | 0.00 | 75 | 1010.0 |
| 20260506071552 | 64 | 162 | 1.0 | 1.0 | 0.00 | 0.00 | 0.00 | 75 | 1010.0 |
| 20260506071052 | 64 | 295 | 1.0 | 2.0 | 0.00 | 0.00 | 0.00 | 74 | 1010.0 |
| 20260506070552 | 64 | 352 | 1.0 | 2.0 | 0.00 | 0.00 | 0.00 | 74 | 1010.0 |
| 20260506062052 | 65 | 0 | 0.0 | 0.0 | 0.00 | 0.00 | 0.00 | 70 | 1010.0 |
| 20260506061552 | 65 | 205 | 1.0 | 2.0 | 0.00 | 0.00 | 0.00 | 70 | 1010.0 |
| 20260506061052 | 65 | 0 | 0.0 | 0.0 | 0.00 | 0.00 | 0.00 | 70 | 1010.0 |
| 20260506060553 | 65 | 0 | 0.0 | 0.0 | 0.00 | 0.00 | 0.00 | 69 | 1010.0 |
| 20260506051052 | 66 | 0 | 0.0 | 0.0 | 0.00 | 0.00 | 0.00 | 67 | 1011.0 |
| 20260506050552 | 66 | 83 | 1.0 | 2.0 | 0.00 | 0.00 | 0.00 | 67 | 1011.0 |
| 20260506045053 | 66 | 0 | 0.0 | 0.0 | 0.00 | 0.00 | 0.00 | 66 | 1011.0 |
| 20260506044553 | 67 | 0 | 0.0 | 0.0 | 0.00 | 0.00 | 0.00 | 65 | 1011.0 |
| 20260506044052 | 67 | 0 | 0.0 | 0.0 | 0.00 | 0.00 | 0.00 | 65 | 1011.0 |
| 20260506043552 | 67 | 220 | 1.0 | 1.0 | 0.00 | 0.00 | 0.00 | 65 | 1011.0 |
| 20260506043053 | 67 | 177 | 0.0 | 0.0 | 0.00 | 0.00 | 0.00 | 64 | 1011.0 |
| 20260506042552 | 67 | 148 | 1.0 | 2.0 | 0.00 | 0.00 | 0.00 | 64 | 1011.0 |
| 20260506042052 | 67 | 92 | 0.0 | 1.0 | 0.00 | 0.00 | 0.00 | 64 | 1011.0 |
| 20260506041552 | 67 | 284 | 0.0 | 1.0 | 0.00 | 0.00 | 0.00 | 63 | 1011.0 |
| 20260506041053 | 67 | 252 | 1.0 | 1.0 | 0.00 | 0.00 | 0.00 | 63 | 1011.0 |
| 20260506040552 | 67 | 282 | 1.0 | 3.0 | 0.00 | 0.00 | 0.00 | 63 | 1011.0 |
| 20260506040053 | 68 | 215 | 0.0 | 1.0 | 0.00 | 0.00 | 0.00 | 63 | 1011.0 |
| 20260506035552 | 68 | 192 | 1.0 | 1.0 | 0.00 | 0.00 | 0.02 | 62 | 1011.0 |
| 20260506035052 | 68 | 212 | 1.0 | 1.0 | 0.00 | 0.00 | 0.02 | 62 | 1011.0 |
| 20260506034553 | 68 | 241 | 1.0 | 1.0 | 0.00 | 0.00 | 0.02 | 62 | 1011.0 |
| 20260506034053 | 68 | 207 | 2.0 | 2.0 | 0.00 | 0.00 | 0.02 | 61 | 1011.0 |
| 20260506033553 | 68 | 236 | 1.0 | 2.0 | 0.00 | 0.00 | 0.02 | 62 | 1011.0 |
| 20260506033052 | 68 | 0 | 0.0 | 0.0 | 0.00 | 0.00 | 0.02 | 61 | 1011.0 |
| 20260506032552 | 68 | 299 | 1.0 | 1.0 | 0.00 | 0.00 | 0.02 | 62 | 1011.0 |
| 20260506032056 | 69 | 4 | 0.0 | 0.0 | 0.00 | 0.00 | 0.02 | 61 | 1011.0 |
| 20260506031555 | 69 | 162 | 1.0 | 2.0 | 0.00 | 0.00 | 0.02 | 61 | 1011.0 |
| 20260506031055 | 69 | 340 | 1.0 | 1.0 | 0.00 | 0.00 | 0.02 | 60 | 1011.0 |
| 20260506030555 | 69 | 322 | 1.0 | 2.0 | 0.00 | 0.00 | 0.02 | 60 | 1011.0 |
| 20260506030052 | 69 | 256 | 0.0 | 2.0 | 0.00 | 0.00 | 0.02 | 60 | 1011.0 |
| 20260506025553 | 69 | 309 | 1.0 | 2.0 | 0.00 | 0.00 | 0.02 | 60 | 1011.0 |
| 20260506025053 | 69 | 267 | 1.0 | 2.0 | 0.00 | 0.00 | 0.02 | 59 | 1011.0 |
| 20260506024552 | 69 | 328 | 0.0 | 1.0 | 0.00 | 0.00 | 0.02 | 60 | 1011.0 |
| 20260506024052 | 70 | 332 | 0.0 | 0.0 | 0.00 | 0.00 | 0.02 | 59 | 1011.0 |
| 20260506023553 | 70 | 255 | 0.0 | 1.0 | 0.00 | 0.00 | 0.02 | 58 | 1011.0 |
| 20260506023052 | 70 | 190 | 2.0 | 2.0 | 0.00 | 0.00 | 0.02 | 58 | 1011.0 |
| 20260506022552 | 70 | 265 | 2.0 | 5.0 | 0.00 | 0.00 | 0.02 | 58 | 1011.0 |
| 20260506022053 | 71 | 297 | 1.0 | 1.0 | 0.00 | 0.00 | 0.02 | 57 | 1010.0 |
| 20260506021553 | 71 | 227 | 1.0 | 2.0 | 0.00 | 0.00 | 0.02 | 56 | 1011.0 |
| 20260506021052 | 71 | 314 | 1.0 | 2.0 | 0.00 | 0.00 | 0.02 | 55 | 1011.0 |
| 20260506020553 | 71 | 5 | 1.0 | 2.0 | 0.00 | 0.00 | 0.02 | 55 | 1010.0 |
| 20260506020052 | 72 | 264 | 2.0 | 4.0 | 0.00 | 0.00 | 0.02 | 54 | 1010.0 |
| 20260506015552 | 72 | 256 | 2.0 | 5.0 | 0.00 | 0.00 | 0.02 | 53 | 1010.0 |
| 20260506015053 | 72 | 232 | 2.0 | 4.0 | 0.00 | 0.00 | 0.02 | 52 | 1010.0 |
| 20260506014553 | 72 | 259 | 2.0 | 2.0 | 0.00 | 0.00 | 0.02 | 52 | 1010.0 |
| 20260506014053 | 72 | 22 | 2.0 | 3.0 | 0.00 | 0.00 | 0.02 | 50 | 1010.0 |
| 20260506013553 | 73 | 261 | 1.0 | 2.0 | 0.00 | 0.00 | 0.02 | 49 | 1010.0 |
| 20260506013053 | 73 | 289 | 2.0 | 4.0 | 0.00 | 0.00 | 0.02 | 48 | 1010.0 |
| 20260506012553 | 73 | 283 | 2.0 | 4.0 | 0.00 | 0.00 | 0.02 | 47 | 1010.0 |
| 20260506012053 | 73 | 307 | 2.0 | 4.0 | 0.00 | 0.00 | 0.02 | 47 | 1010.0 |
| 20260506011553 | 73 | 243 | 1.0 | 2.0 | 0.00 | 0.00 | 0.02 | 47 | 1010.0 |
| 20260506011052 | 74 | 257 | 2.0 | 3.0 | 0.00 | 0.00 | 0.02 | 47 | 1010.0 |
| 20260506010554 | 74 | 222 | 0.0 | 1.0 | 0.00 | 0.00 | 0.02 | 46 | 1010.0 |
| 20260506010052 | 74 | 245 | 1.0 | 2.0 | 0.00 | 0.00 | 0.02 | 47 | 1010.0 |
| 20260506005553 | 74 | 253 | 2.0 | 3.0 | 0.00 | 0.00 | 0.02 | 46 | 1010.0 |
| 20260506005053 | 74 | 297 | 2.0 | 3.0 | 0.00 | 0.00 | 0.02 | 46 | 1010.0 |
| 20260506004552 | 74 | 285 | 1.0 | 2.0 | 0.00 | 0.00 | 0.02 | 47 | 1009.0 |
| 20260506004052 | 74 | 346 | 0.0 | 0.0 | 0.00 | 0.00 | 0.02 | 46 | 1009.0 |
| 20260506003552 | 74 | 354 | 2.0 | 3.0 | 0.00 | 0.00 | 0.02 | 45 | 1009.0 |
| 20260506003053 | 75 | 39 | 1.0 | 2.0 | 0.00 | 0.00 | 0.02 | 45 | 1009.0 |
| 20260506002553 | 75 | 266 | 1.0 | 2.0 | 0.00 | 0.00 | 0.02 | 44 | 1009.0 |
| 20260506002052 | 75 | 232 | 2.0 | 3.0 | 0.00 | 0.00 | 0.02 | 44 | 1009.0 |
| 20260506001552 | 75 | 215 | 2.0 | 2.0 | 0.00 | 0.00 | 0.02 | 43 | 1009.0 |
| 20260506001054 | 75 | 202 | 1.0 | 3.0 | 0.00 | 0.00 | 0.02 | 43 | 1009.0 |
| 20260506000553 | 76 | 354 | 2.0 | 7.0 | 0.00 | 0.00 | 0.02 | 43 | 1009.0 |
| 20260506000052 | 76 | 273 | 1.0 | 2.0 | 0.00 | 0.00 | 0.02 | 41 | 1009.0 |
| 20260505235553 | 76 | 282 | 1.0 | 2.0 | 0.00 | 0.00 | 0.02 | 41 | 1009.0 |
| 20260505235056 | 76 | 183 | 1.0 | 3.0 | 0.00 | 0.00 | 0.02 | 40 | 1009.0 |
| 20260505234552 | 77 | 218 | 0.0 | 2.0 | 0.00 | 0.00 | 0.02 | 40 | 1009.0 |
| 20260505234052 | 77 | 317 | 1.0 | 2.0 | 0.00 | 0.00 | 0.02 | 39 | 1009.0 |
| 20260505233552 | 77 | 252 | 0.0 | 2.0 | 0.00 | 0.00 | 0.02 | 39 | 1009.0 |
| 20260505233053 | 77 | 291 | 2.0 | 4.0 | 0.00 | 0.00 | 0.02 | 38 | 1009.0 |
| 20260505232553 | 77 | 265 | 1.0 | 2.0 | 0.00 | 0.00 | 0.02 | 38 | 1009.0 |
| 20260505232053 | 78 | 298 | 1.0 | 2.0 | 0.00 | 0.00 | 0.02 | 38 | 1009.0 |
| 20260505231552 | 78 | 211 | 1.0 | 2.0 | 0.00 | 0.00 | 0.02 | 37 | 1009.0 |
| 20260505231052 | 78 | 209 | 2.0 | 4.0 | 0.00 | 0.00 | 0.02 | 36 | 1009.0 |
| 20260505230553 | 78 | 210 | 2.0 | 6.0 | 0.00 | 0.00 | 0.02 | 36 | 1008.0 |
| 20260505230053 | 78 | 247 | 3.0 | 6.0 | 0.00 | 0.00 | 0.02 | 36 | 1008.0 |
| 20260505225556 | 78 | 213 | 2.0 | 4.0 | 0.00 | 0.00 | 0.02 | 37 | 1008.0 |
| 20260505225053 | 78 | 346 | 1.0 | 3.0 | 0.00 | 0.00 | 0.02 | 36 | 1008.0 |
| 20260505224553 | 79 | 209 | 2.0 | 4.0 | 0.00 | 0.00 | 0.02 | 36 | 1008.0 |
| 20260505224053 | 79 | 210 | 2.0 | 4.0 | 0.00 | 0.00 | 0.02 | 35 | 1008.0 |
| 20260505223553 | 79 | 222 | 2.0 | 3.0 | 0.00 | 0.00 | 0.02 | 35 | 1008.0 |
| 20260505223053 | 79 | 246 | 2.0 | 3.0 | 0.00 | 0.00 | 0.02 | 35 | 1008.0 |
| 20260505222552 | 79 | 220 | 2.0 | 4.0 | 0.00 | 0.00 | 0.02 | 35 | 1008.0 |
| 20260505222055 | 79 | 202 | 2.0 | 5.0 | 0.00 | 0.00 | 0.02 | 34 | 1008.0 |
| 20260505221553 | 79 | 274 | 2.0 | 4.0 | 0.00 | 0.00 | 0.02 | 34 | 1008.0 |
| 20260505221053 | 79 | 240 | 2.0 | 3.0 | 0.00 | 0.00 | 0.02 | 34 | 1008.0 |
| 20260505220553 | 79 | 226 | 2.0 | 3.0 | 0.00 | 0.00 | 0.02 | 34 | 1008.0 |
| 20260505220052 | 80 | 166 | 1.0 | 2.0 | 0.00 | 0.00 | 0.02 | 33 | 1008.0 |
| 20260505215553 | 80 | 231 | 1.0 | 2.0 | 0.00 | 0.00 | 0.02 | 33 | 1008.0 |
| 20260505215053 | 80 | 207 | 2.0 | 3.0 | 0.00 | 0.00 | 0.02 | 32 | 1008.0 |
| 20260505214553 | 80 | 150 | 2.0 | 4.0 | 0.00 | 0.00 | 0.02 | 32 | 1008.0 |
| 20260505214053 | 80 | 211 | 2.0 | 5.0 | 0.00 | 0.00 | 0.02 | 32 | 1008.0 |
| 20260505213553 | 81 | 255 | 3.0 | 6.0 | 0.00 | 0.00 | 0.02 | 32 | 1008.0 |
| 20260505213053 | 81 | 267 | 1.0 | 3.0 | 0.00 | 0.00 | 0.02 | 33 | 1008.0 |
| 20260505212553 | 81 | 268 | 4.0 | 6.0 | 0.00 | 0.00 | 0.02 | 32 | 1008.0 |
| 20260505212053 | 82 | 204 | 2.0 | 5.0 | 0.00 | 0.00 | 0.02 | 33 | 1008.0 |
| 20260505211552 | 82 | 305 | 2.0 | 4.0 | 0.00 | 0.00 | 0.02 | 34 | 1008.0 |
| 20260505211052 | 82 | 290 | 3.0 | 9.0 | 0.00 | 0.00 | 0.02 | 33 | 1008.0 |
| 20260505210552 | 82 | 272 | 2.0 | 5.0 | 0.00 | 0.00 | 0.02 | 34 | 1008.0 |
| 20260505210052 | 82 | 210 | 3.0 | 5.0 | 0.00 | 0.00 | 0.02 | 34 | 1008.0 |
| 20260505205552 | 82 | 319 | 4.0 | 5.0 | 0.00 | 0.00 | 0.02 | 33 | 1007.0 |
| 20260505205053 | 82 | 277 | 2.0 | 5.0 | 0.00 | 0.00 | 0.02 | 34 | 1008.0 |
| 20260505204553 | 82 | 219 | 3.0 | 4.0 | 0.00 | 0.00 | 0.02 | 34 | 1008.0 |
| 20260505204053 | 82 | 270 | 3.0 | 4.0 | 0.00 | 0.00 | 0.02 | 34 | 1008.0 |
| 20260505203553 | 82 | 325 | 3.0 | 5.0 | 0.00 | 0.00 | 0.02 | 34 | 1008.0 |
| 20260505203053 | 82 | 238 | 4.0 | 8.0 | 0.00 | 0.00 | 0.02 | 34 | 1008.0 |
| 20260505202552 | 82 | 262 | 2.0 | 4.0 | 0.00 | 0.00 | 0.02 | 34 | 1008.0 |
| 20260505202053 | 83 | 194 | 3.0 | 5.0 | 0.00 | 0.00 | 0.02 | 33 | 1008.0 |
| 20260505201553 | 83 | 264 | 2.0 | 4.0 | 0.00 | 0.00 | 0.02 | 34 | 1008.0 |
| 20260505201053 | 83 | 270 | 3.0 | 6.0 | 0.00 | 0.00 | 0.02 | 35 | 1008.0 |
| 20260505200552 | 83 | 273 | 2.0 | 3.0 | 0.00 | 0.00 | 0.02 | 34 | 1008.0 |
| 20260505200055 | 83 | 275 | 1.0 | 3.0 | 0.00 | 0.00 | 0.02 | 36 | 1008.0 |
| 20260505195553 | 83 | 284 | 1.0 | 2.0 | 0.00 | 0.00 | 0.02 | 36 | 1008.0 |
| 20260505195053 | 83 | 315 | 3.0 | 5.0 | 0.00 | 0.00 | 0.02 | 37 | 1008.0 |
| 20260505194552 | 83 | 274 | 3.0 | 6.0 | 0.00 | 0.00 | 0.02 | 38 | 1008.0 |
| 20260505194052 | 82 | 216 | 2.0 | 4.0 | 0.00 | 0.00 | 0.02 | 38 | 1008.0 |
| 20260505193552 | 82 | 284 | 2.0 | 4.0 | 0.00 | 0.00 | 0.02 | 38 | 1008.0 |
| 20260505193053 | 82 | 209 | 4.0 | 6.0 | 0.00 | 0.00 | 0.02 | 36 | 1008.0 |
| 20260505192553 | 82 | 196 | 3.0 | 6.0 | 0.00 | 0.00 | 0.02 | 36 | 1008.0 |
| 20260505192052 | 82 | 213 | 3.0 | 4.0 | 0.00 | 0.00 | 0.02 | 38 | 1008.0 |
| 20260505191553 | 82 | 261 | 3.0 | 7.0 | 0.00 | 0.00 | 0.02 | 36 | 1008.0 |
| 20260505191055 | 82 | 288 | 4.0 | 7.0 | 0.00 | 0.00 | 0.02 | 34 | 1008.0 |
| 20260505190553 | 82 | 204 | 4.0 | 7.0 | 0.00 | 0.00 | 0.02 | 35 | 1009.0 |
| 20260505190052 | 82 | 191 | 2.0 | 3.0 | 0.00 | 0.00 | 0.02 | 36 | 1009.0 |
| 20260505185552 | 82 | 271 | 2.0 | 3.0 | 0.00 | 0.00 | 0.02 | 38 | 1009.0 |
| 20260505185052 | 82 | 201 | 2.0 | 4.0 | 0.00 | 0.00 | 0.02 | 37 | 1009.0 |
| 20260505184553 | 82 | 177 | 3.0 | 5.0 | 0.00 | 0.00 | 0.02 | 37 | 1009.0 |
| 20260505184052 | 82 | 215 | 5.0 | 8.0 | 0.00 | 0.00 | 0.02 | 36 | 1009.0 |
| 20260505183553 | 82 | 211 | 4.0 | 8.0 | 0.00 | 0.00 | 0.02 | 36 | 1009.0 |
| 20260505183052 | 82 | 223 | 3.0 | 8.0 | 0.00 | 0.00 | 0.02 | 37 | 1009.0 |